Temp
7 7 7 7 7 7 7 7 7 7 7 7 7 7 7 7 7 7 7 7 7 7 8 8 7 7 8 8 8 8 9 9 10 10 10 10 10 11 12 12 12 12 12 12 13 13 13 13 13 14 14 14 13 13 13 13 13 14 15 15 15 16 16 16 16 15 16 16 16 15 15 15 15 15 15 14 13 12 11 10 9 8 7 6 5 5 4 3
7 7 7 7 7 7 7 7 7 7 7 6 6 7 7 7 7 7 7 7 7 7 7 7 7 7 7 8 8 9 9 10 10 10 9 10 10 11 11 12 12 12 12 12 13 13 13 12 12 13 14 13 13 13 13 13 13 14 15 15 15 16 15 16 16 16 16 16 16 15 15 15 15 14 15 15 14 13 12 11 10 9 7 6 4 4 3 3
7 7 7 6 6 7 7 6 6 6 6 6 6 6 7 7 7 7 7 7 7 7 7 7 7 7 8 8 8 9 9 10 10 9 10 10 10 11 11 12 12 12 12 12 13 13 13 13 13 14 14 13 13 13 14 13 13 14 14 14 15 15 15 15 15 16 15 16 16 15 15 15 14 13 15 15 14 12 10 9 10 8 6 5 4 3 3 2
7 7 6 6 6 6 6 6 6 6 6 6 6 6 6 6 7 7 7 7 7 7 7 7 7 8 8 7 8 9 9 11 10 9 10 10 10 11 11 11 12 12 12 13 13 13 13 13 13 14 14 12 12 13 13 13 14 14 14 14 14 14 15 15 15 15 14 15 16 15 15 15 12 11 12 14 14 12 8 6 7 6 4 3 3 3 2 2
6 6 6 6 6 6 6 6 6 6 6 6 6 6 6 6 7 7 7 7 7 7 7 7 8 8 7 7 8 8 10 12 10 9 10 10 10 11 11 11 12 12 12 13 13 13 13 13 13 13 13 12 12 13 13 13 13 14 14 14 14 14 15 15 14 14 14 15 15 15 15 14 11 10 9 12 13 9 6 5 4 3 3 2 2 2 2 1
6 6 6 6 6 6 6 6 6 6 6 6 6 6 6 6 7 7 7 6 6 6 7 7 8 8 8 8 8 8 10 12 9 9 10 10 10 11 11 11 11 12 12 13 13 13 13 12 12 13 13 12 12 12 12 12 13 13 13 14 13 13 14 14 14 14 14 16 16 15 15 12 11 10 7 7 8 5 4 4 3 2 2 2 1 1 1 0
6 6 6 6 6 6 6 5 5 5 5 5 6 6 6 6 7 7 6 6 6 6 7 7 8 8 7 8 8 9 9 9 8 9 10 10 10 10 11 11 11 12 12 13 13 12 12 12 12 12 12 12 12 12 12 12 13 13 13 13 13 13 14 14 14 13 14 15 15 14 14 12 12 10 7 6 5 4 4 3 3 2 1 1 0 0 -0 -1
6 6 6 6 6 6 5 5 5 5 5 6 6 6 6 6 6 6 6 6 6 7 7 8 8 7 8 8 8 9 9 8 9 9 10 10 10 10 11 11 11 12 12 13 12 12 12 12 12 12 12 12 11 12 12 12 12 12 12 13 13 13 13 14 14 14 14 14 13 13 13 11 10 9 7 6 5 4 4 3 2 2 1 0 -1 -1 -1 -1
6 6 6 6 6 5 5 5 5 5 5 6 6 6 6 6 6 6 6 6 7 7 7 8 8 7 8 7 8 10 9 8 9 9 10 10 10 11 11 11 11 12 12 12 12 12 12 12 11 12 12 11 11 12 12 12 12 12 12 12 13 13 13 14 14 14 13 13 14 13 11 9 9 9 7 5 4 4 3 3 2 1 0 -1 -1 -1 -2 -2
6 6 6 6 5 5 5 5 5 5 5 6 6 6 6 6 6 7 7 7 7 7 7 8 8 7 8 7 9 10 8 8 9 9 10 10 10 11 11 11 11 12 12 11 12 12 12 12 11 12 12 11 11 11 11 12 12 12 11 11 12 12 13 13 13 13 13 13 14 13 11 10 10 10 8 5 5 4 3 2 1 1 -0 -1 -1 -2 -2 -3
6 6 5 5 5 5 5 5 5 5 6 6 6 5 5 6 7 7 7 7 7 8 8 8 8 8 8 8 10 10 8 8 9 9 10 10 11 11 11 11 11 12 12 11 11 12 13 12 10 11 12 12 11 11 12 12 12 12 11 12 11 12 13 12 13 13 13 14 13 12 11 10 10 9 7 5 5 4 2 2 1 1 -0 -1 -2 -2 -2 -3
5 5 5 5 5 5 5 5 5 5 5 5 5 5 6 6 7 7 7 7 7 8 8 8 8 8 9 8 8 8 8 9 9 9 10 10 11 11 11 11 11 12 12 11 11 11 12 12 12 12 12 12 12 12 12 11 11 12 12 13 12 12 13 13 13 13 13 14 13 13 12 10 8 7 5 5 5 4 2 2 1 0 -0 -1 -2 -2 -3 -3
5 5 5 5 5 5 5 5 5 5 5 5 5 6 6 7 7 7 8 8 8 8 8 8 8 8 9 9 8 8 8 9 9 10 10 10 10 11 11 11 11 12 12 12 11 12 12 12 13 12 11 12 12 11 11 11 11 12 12 13 13 12 13 13 12 12 13 13 12 14 13 9 6 6 5 5 5 3 2 1 0 -0 -1 -1 -2 -2 -3 -4
5 5 4 4 4 4 4 5 5 5 5 5 5 6 7 7 7 8 8 8 8 8 8 8 8 8 9 8 8 9 9 9 10 10 10 10 10 10 11 11 11 11 12 12 12 12 12 12 13 11 10 11 11 11 11 11 11 12 12 12 12 12 13 12 11 12 13 12 12 14 13 8 5 5 5 5 4 2 1 0 -0 -1 -1 -2 -2 -3 -3 -4
4 4 4 4 4 4 4 4 4 5 5 6 6 6 7 7 7 7 8 8 8 8 8 8 8 9 9 8 8 9 9 9 9 9 9 10 10 10 10 11 11 11 12 12 12 12 12 12 12 12 11 10 11 12 12 12 11 12 12 12 11 11 13 12 11 11 13 12 11 13 12 7 4 3 3 4 3 2 0 -1 -1 -2 -2 -2 -3 -3 -4 -4
4 4 4 4 4 4 4 4 5 5 6 6 6 7 7 7 7 7 8 8 8 8 8 8 9 9 9 8 8 9 9 8 8 8 9 10 10 10 10 11 11 11 12 12 12 12 12 12 11 10 11 11 11 12 12 11 11 11 11 12 11 11 12 12 11 11 11 12 11 12 10 6 4 3 2 3 2 1 -0 -1 -1 -2 -2 -3 -3 -4 -4 -5
4 4 4 4 4 4 4 5 5 6 6 7 7 7 7 7 7 8 8 8 8 8 8 9 9 9 9 8 8 8 7 8 8 9 9 9 10 10 10 10 9 10 11 11 12 12 11 11 9 9 10 10 11 12 11 11 11 10 10 11 10 10 11 12 13 11 10 12 11 9 7 4 3 2 1 1 1 0 -1 -1 -2 -2 -3 -3 -3 -4 -5 -5
4 4 4 4 4 4 4 5 6 7 7 7 7 7 7 7 8 8 8 8 8 9 10 9 9 10 9 8 8 7 7 7 8 8 9 9 10 10 10 9 8 9 11 11 11 11 10 9 10 10 11 10 10 11 11 11 11 11 10 11 10 9 10 11 13 11 10 12 10 8 6 3 2 2 1 1 0 -0 -1 -2 -2 -3 -3 -3 -4 -4 -5 -5
4 3 3 4 4 4 5 6 7 7 7 7 7 7 8 8 9 9 8 8 8 9 9 8 8 9 9 7 7 7 7 7 8 8 8 9 9 10 10 9 9 10 11 10 10 10 10 10 10 10 10 10 10 10 11 11 11 11 10 11 11 11 10 10 11 10 9 10 8 7 6 2 1 1 0 0 -0 -1 -2 -2 -3 -3 -3 -4 -4 -4 -5 -6
3 3 3 4 4 4 5 7 7 7 7 7 7 8 8 9 9 8 7 6 6 5 7 6 5 7 7 6 7 7 7 8 8 7 8 8 9 9 9 8 9 10 10 10 10 9 8 10 10 10 9 9 10 9 10 10 10 11 10 11 10 11 11 11 11 9 8 10 6 4 4 1 1 -0 -1 -0 -1 -2 -2 -3 -3 -4 -4 -4 -5 -5 -5 -6
3 3 3 4 5 4 5 7 7 8 8 8 8 8 8 8 8 8 6 6 4 3 5 5 5 6 6 6 6 6 7 8 8 7 7 8 8 9 9 8 10 10 8 8 9 8 8 10 9 8 8 8 9 9 9 9 10 10 10 11 10 10 11 10 10 8 8 9 5 3 3 1 -0 -1 -1 -1 -2 -3 -3 -3 -4 -4 -4 -5 -5 -5 -6 -6
3 3 4 5 5 5 6 7 7 8 8 8 7 5 4 4 5 6 6 7 6 5 5 5 5 6 6 6 6 6 7 8 8 7 7 7 8 9 9 8 10 9 7 7 9 9 9 9 9 7 6 7 8 8 9 9 9 10 9 10 10 10 10 9 9 8 8 9 5 3 4 1 -1 -1 -2 -2 -3 -4 -4 -4 -4 -4 -5 -5 -5 -6 -6 -6
3 3 4 5 5 5 6 7 8 8 8 8 6 3 2 3 4 5 6 7 7 6 7 6 6 7 6 7 6 6 7 7 7 7 6 7 8 8 8 9 8 8 7 8 9 9 9 9 7 5 5 7 8 7 9 9 8 9 9 9 10 9 10 11 10 7 7 7 5 4 4 1 -1 -1 -2 -3 -3 -4 -4 -4 -5 -5 -5 -6 -6 -6 -6 -7
3 3 4 5 5 6 6 7 8 8 7 7 5 3 3 4 5 5 6 7 7 7 7 6 6 6 6 6 6 7 7 5 6 6 5 6 7 7 7 8 8 8 7 8 9 9 8 7 5 5 6 8 9 7 8 9 8 8 8 9 10 9 10 11 9 7 6 6 5 5 6 4 0 -0 -2 -3 -3 -3 -4 -4 -5 -5 -5 -6 -6 -6 -7 -7
3 4 5 5 6 6 6 7 7 6 6 5 4 4 4 5 5 5 7 7 7 7 6 6 6 6 6 6 6 6 6 5 5 5 4 4 6 7 7 7 7 8 7 7 8 8 8 5 4 6 7 7 9 8 7 8 9 8 8 9 9 10 10 10 8 8 9 8 6 7 9 7 2 -0 -0 -2 -3 -3 -4 -4 -5 -5 -5 -6 -6 -7 -7 -7
3 4 5 6 7 6 6 7 5 5 6 5 4 5 5 5 5 6 8 8 8 7 7 7 7 7 7 6 5 5 7 6 5 4 4 4 4 6 7 6 7 7 6 7 8 7 6 5 5 7 8 8 9 8 5 6 9 9 8 7 7 8 9 9 9 10 10 10 8 7 10 9 3 1 -0 -2 -3 -3 -4 -4 -5 -5 -5 -6 -6 -7 -7 -7
3 4 5 6 6 7 7 6 5 6 7 5 4 5 5 6 6 6 8 9 8 7 7 7 7 7 7 4 3 6 7 6 5 4 4 4 3 5 7 7 7 7 5 7 8 6 5 6 6 7 8 8 8 8 5 5 9 9 7 6 6 8 9 9 10 10 10 9 8 7 8 9 7 3 -1 -2 -2 -4 -4 -4 -5 -5 -6 -6 -6 -7 -7 -8
3 4 5 5 6 7 6 6 5 4 5 5 4 5 5 5 6 7 9 9 7 6 6 7 7 7 6 4 3 5 5 4 6 6 3 3 4 5 8 6 5 6 4 7 9 5 3 5 5 7 8 8 7 6 4 5 8 8 6 5 6 7 8 8 9 9 9 8 8 7 7 8 8 3 -3 -2 -2 -3 -4 -4 -5 -5 -6 -6 -6 -7 -7 -8
4 5 5 5 6 6 6 6 5 3 4 4 4 5 5 5 6 8 9 9 7 5 6 6 7 6 5 4 4 3 3 3 5 4 2 4 4 5 6 4 4 5 4 5 7 4 3 4 3 4 6 6 5 4 4 5 7 6 5 6 6 6 7 7 8 9 8 8 8 8 8 8 8 3 -2 -2 -0 -1 -3 -4 -5 -5 -6 -6 -6 -7 -7 -8
4 5 5 5 5 5 6 5 4 4 4 4 5 5 5 6 7 9 9 8 7 5 5 6 6 4 4 5 5 2 3 3 1 2 3 4 4 3 4 3 4 5 5 4 5 3 3 3 3 3 3 3 3 3 3 4 5 5 6 7 8 7 8 7 7 8 8 8 7 7 7 8 9 4 -1 -1 -1 -2 -3 -4 -4 -5 -6 -6 -6 -7 -7 -7
4 5 5 6 5 5 6 5 3 4 4 5 5 5 6 8 8 9 8 7 6 5 5 5 3 3 4 5 4 2 2 2 -0 2 4 3 4 4 4 5 6 6 5 5 4 4 4 4 3 2 2 2 3 4 4 3 3 5 7 8 8 8 8 7 7 7 7 7 6 5 5 7 9 4 -1 -3 -3 -3 -2 -3 -4 -5 -5 -6 -6 -7 -7 -7
4 4 5 5 5 5 5 4 4 4 4 5 6 7 8 8 7 8 7 6 6 5 5 4 2 2 3 3 3 1 1 2 -0 0 1 0 1 1 1 2 4 5 6 5 5 5 4 3 2 2 2 2 3 5 5 5 5 6 7 8 8 7 7 7 7 6 6 6 5 5 5 6 7 2 -3 -3 -3 -4 -3 -3 -4 -5 -6 -6 -6 -7 -7 -7
3 4 4 5 5 5 4 4 4 4 5 5 7 8 8 8 8 7 5 5 6 4 3 3 1 1 2 4 3 0 0 1 0 -0 -1 -1 -0 -1 -2 -3 -3 2 6 5 4 5 5 3 2 3 3 2 2 5 6 6 6 6 7 7 7 6 6 6 5 4 5 5 4 4 6 6 6 0 -5 -4 -4 -5 -4 -4 -4 -5 -6 -6 -6 -7 -7 -8
4 4 4 4 4 4 4 4 4 5 5 6 8 8 7 8 7 5 4 4 3 2 2 1 1 1 2 3 1 -0 1 1 -1 -0 0 1 2 1 -0 -2 -4 -0 4 4 4 5 5 5 3 2 2 1 1 2 3 4 5 5 4 5 7 7 7 6 6 6 5 5 4 4 5 7 7 0 -6 -5 -5 -5 -5 -6 -5 -5 -6 -6 -6 -7 -7 -8
4 4 4 4 3 3 3 3 4 5 5 6 8 7 7 9 7 5 5 3 1 2 1 -0 2 4 2 1 -0 -1 2 2 -1 -0 1 1 2 1 0 -1 -3 -2 2 5 4 2 4 4 1 0 0 0 1 0 -0 2 5 4 2 4 6 6 6 5 4 4 4 4 4 5 5 2 0 -5 -8 -5 -5 -6 -5 -6 -6 -6 -6 -6 -6 -7 -7 -8
4 4 4 3 3 3 3 4 4 5 6 7 8 7 7 7 5 3 3 2 2 3 3 2 4 5 3 2 1 -0 1 1 -0 1 1 -1 -1 -2 -3 -3 -4 -3 0 4 4 2 3 3 1 0 1 -1 -0 -0 -0 1 4 4 3 5 4 2 4 5 3 2 3 4 4 5 5 1 -2 -4 -6 -6 -5 -6 -6 -6 -6 -6 -6 -6 -6 -7 -7 -8
4 4 3 2 3 3 3 4 4 5 6 7 8 7 3 2 1 0 0 0 1 2 3 5 4 4 4 3 2 1 1 1 0 2 2 -1 -1 -2 -3 -4 -4 -4 -4 -1 2 2 3 3 1 -0 2 0 -2 -1 -0 -1 1 4 4 4 2 2 4 5 5 4 3 4 4 5 5 3 3 2 -5 -7 -5 -5 -6 -6 -6 -6 -6 -6 -6 -7 -7 -8
3 3 3 2 3 3 3 4 5 5 6 7 7 3 -0 -0 -1 -2 -1 -1 0 2 4 6 4 2 3 4 2 0 1 3 2 2 2 1 1 -1 -3 -3 -4 -5 -6 -4 -0 0 1 4 2 -2 1 1 -2 -0 2 0 -1 1 2 2 2 4 5 4 4 5 4 4 4 4 3 2 4 3 -3 -6 -5 -5 -5 -5 -6 -6 -6 -6 -6 -7 -7 -8
3 3 4 3 3 3 4 5 5 6 7 6 6 4 -1 -2 -2 -3 -3 -2 -0 2 3 4 2 1 1 2 2 -1 -1 2 2 1 2 2 1 -2 -3 -3 -4 -4 -6 -5 -1 -1 -1 4 3 -1 -1 -1 -1 1 2 2 1 1 1 0 1 2 3 3 3 4 4 4 4 3 3 3 2 -0 -3 -4 -5 -5 -4 -5 -6 -5 -6 -6 -6 -7 -7 -8
2 5 5 3 4 4 4 5 5 7 7 3 2 2 -2 -3 -2 -4 -4 -3 -1 1 2 2 2 2 1 -1 -0 -1 -3 -1 0 1 1 0 0 -2 -4 -5 -4 -4 -5 -5 -3 -2 -1 2 3 0 -1 -1 0 -1 -2 -1 -0 1 2 2 1 1 1 2 2 1 2 4 3 3 4 4 -0 -4 -4 -4 -4 -4 -4 -5 -5 -5 -5 -5 -6 -6 -7 -8
2 6 5 2 4 4 4 6 3 1 3 1 -2 -2 -3 -2 -1 -3 -3 -3 -3 -2 -1 0 1 1 1 -1 -1 -2 -3 -2 -2 -1 -1 -2 -1 -1 -5 -7 -6 -5 -4 -3 -2 -2 -1 1 2 1 0 -0 -2 -4 -5 -4 -4 -3 -1 -0 -0 0 2 3 2 -1 -2 2 2 1 3 3 -2 -5 -4 -4 -4 -3 -4 -4 -4 -5 -5 -5 -6 -6 -7 -7
4 6 4 2 4 4 5 5 -4 -7 -1 0 -2 -3 -3 -2 -2 -3 -3 -3 -3 -3 -3 -2 -1 -2 -1 -1 -2 -3 -3 -2 -2 -3 -2 -3 -3 -3 -7 -9 -8 -8 -5 -2 -2 -4 -3 -1 1 -0 -2 -3 -4 -6 -6 -6 -6 -5 -4 -5 -4 -2 1 4 4 0 -2 -1 -2 -2 1 1 -4 -7 -5 -5 -5 -4 -4 -4 -4 -5 -5 -5 -6 -6 -7 -7
5 5 3 2 3 3 4 4 -2 -5 -3 -3 -5 -5 -4 -3 -3 -3 -3 -3 -2 -2 -2 -2 -3 -3 -3 -3 -3 -3 -3 -1 -2 -3 -3 -5 -6 -6 -8 -9 -8 -8 -6 -3 -3 -4 -3 -1 1 -1 -3 -4 -5 -6 -7 -7 -6 -4 -5 -6 -6 -4 -2 -0 -1 -1 -1 -1 -1 -1 1 1 -4 -7 -6 -5 -6 -4 -4 -4 -4 -4 -5 -6 -6 -6 -7 -7
3 2 2 3 4 4 5 6 3 -1 -4 -5 -5 -5 -5 -5 -5 -3 -3 -4 -4 -3 -2 -3 -5 -4 -4 -6 -4 -3 -4 -1 -2 -5 -5 -5 -6 -7 -9 -9 -8 -7 -5 -3 -4 -3 -1 0 1 1 0 -1 -1 -2 -3 -5 -5 -4 -5 -7 -8 -6 -5 -4 -5 -4 -0 0 0 2 3 1 -4 -7 -6 -5 -5 -4 -4 -5 -4 -4 -5 -5 -6 -7 -7 -8
2 2 2 2 1 2 2 1 3 1 -4 -5 -3 -4 -4 -4 -6 -5 -4 -5 -7 -6 -3 -4 -6 -6 -6 -7 -5 -6 -6 -3 -2 -5 -6 -6 -7 -7 -8 -9 -9 -7 -5 -6 -6 -4 -2 -3 -1 2 3 3 4 2 -0 -3 -5 -5 -6 -8 -8 -7 -5 -2 -2 -1 1 -1 -2 2 3 -1 -5 -6 -5 -5 -5 -4 -4 -5 -5 -5 -5 -6 -7 -7 -8 -8
5 5 4 3 -0 -2 -3 -6 -3 1 -2 -2 -1 -4 -4 -3 -6 -7 -6 -6 -7 -7 -5 -5 -7 -6 -5 -5 -4 -4 -6 -6 -5 -5 -6 -7 -6 -7 -9 -8 -8 -7 -5 -6 -7 -6 -5 -6 -5 -1 2 1 1 -2 -6 -7 -5 -4 -5 -7 -7 -7 -7 -4 -2 -0 -0 -3 -3 -0 -1 -2 -3 -5 -5 -5 -5 -5 -5 -5 -5 -5 -6 -6 -7 -8 -8 -9
4 6 4 4 3 1 -1 -5 -4 -1 -2 -0 1 -2 -4 -3 -5 -6 -5 -6 -7 -7 -6 -6 -7 -4 -2 -3 -2 -3 -6 -7 -6 -5 -6 -8 -7 -8 -9 -8 -7 -6 -5 -6 -8 -6 -3 -4 -7 -6 -5 -7 -8 -8 -11 -10 -6 -5 -5 -5 -6 -7 -8 -5 -1 -1 -3 -2 -0 -2 -6 -3 -1 -3 -5 -4 -5 -5 -5 -5 -5 -5 -6 -6 -7 -8 -8 -9
2 3 -2 -2 3 3 1 -1 -3 -3 -2 -2 -2 -4 -4 -3 -4 -4 -4 -6 -7 -7 -5 -4 -6 -4 -3 -4 -1 -2 -5 -5 -4 -6 -8 -8 -8 -7 -7 -7 -7 -6 -6 -6 -8 -7 -2 -2 -9 -9 -7 -11 -12 -11 -11 -10 -8 -8 -7 -6 -6 -7 -7 -5 -3 -4 -4 -0 1 -4 -7 -4 -1 -3 -4 -5 -5 -5 -4 -5 -6 -6 -6 -7 -7 -8 -8 -8
-2 -0 -6 -6 -1 -1 -4 -4 -4 -3 -2 -3 -4 -5 -4 -2 -3 -5 -7 -6 -5 -6 -5 -2 -3 -6 -6 -6 -3 -1 -3 -2 -2 -5 -8 -8 -8 -7 -6 -5 -6 -7 -7 -5 -7 -9 -4 -3 -10 -11 -7 -9 -11 -11 -11 -10 -8 -8 -7 -6 -7 -7 -7 -6 -5 -6 -6 -3 -4 -8 -8 -6 -4 -4 -4 -5 -6 -6 -6 -6 -7 -7 -6 -6 -7 -7 -8 -8
-0 1 -2 -4 -3 -5 -7 -7 -5 -1 -2 -4 -2 -3 -6 -3 -2 -6 -10 -7 -2 -4 -6 -2 -3 -8 -9 -7 -4 -2 -4 -3 -1 -4 -7 -7 -7 -7 -5 -4 -5 -8 -7 -5 -7 -9 -5 -4 -10 -10 -6 -7 -10 -10 -11 -10 -9 -8 -6 -7 -8 -8 -8 -8 -7 -8 -8 -6 -7 -9 -8 -7 -6 -5 -6 -6 -7 -8 -7 -7 -7 -6 -6 -7 -7 -7 -8 -8
-2 -2 -2 1 -0 -5 -5 -6 -6 -1 -0 -3 -1 -3 -6 -4 -3 -6 -9 -11 -8 -5 -6 -5 -5 -9 -10 -7 -5 -4 -7 -8 -5 -6 -8 -7 -6 -7 -6 -5 -6 -6 -6 -7 -8 -7 -5 -6 -10 -8 -3 -4 -9 -10 -9 -10 -10 -8 -6 -6 -8 -8 -8 -8 -8 -8 -7 -5 -6 -7 -6 -5 -4 -5 -7 -7 -7 -7 -6 -6 -7 -6 -7 -7 -7 -7 -7 -7
-4 -5 -4 2 2 -5 -5 -5 -6 -2 1 -3 -4 -6 -6 -5 -7 -7 -4 -10 -14 -11 -11 -11 -7 -7 -7 -5 -5 -6 -8 -10 -9 -10 -11 -10 -9 -10 -10 -9 -9 -7 -6 -7 -8 -9 -8 -6 -7 -6 -2 -3 -10 -12 -10 -8 -6 -3 -3 -5 -7 -8 -8 -7 -8 -8 -7 -6 -5 -4 -3 -4 -5 -6 -6 -6 -7 -7 -6 -6 -6 -6 -7 -8 -7 -7 -7 -7
Height
789 788 787 786 785 785 784 784 783 783 782 781 781 780 779 779 778 778 778 778 778 778 778 778 777 777 777 777 777 776 775 775 775 775 776 779 779 779 779 779 779 780 780 781 781 782 783 784 785 785 785 787 789 790 791 792 792 793 797 801 804 804 803 802 802 805 804 803 803 803 803 803 806 806 804 805 808 813 817 821 825 827 830 835 837 836 834 831
789 788 787 786 785 785 784 783 783 782 781 781 780 780 779 778 778 777 778 778 778 778 777 778 777 777 777 777 776 776 776 776 776 776 778 779 779 779 780 780 780 780 781 781 782 783 784 785 785 785 786 789 791 792 793 793 794 796 799 802 803 802 801 800 800 802 802 801 802 804 804 803 806 807 805 808 812 814 817 823 824 828 834 836 837 836 834 831
788 788 787 786 785 784 783 783 782 781 781 780 779 779 778 778 777 777 777 777 777 777 777 777 777 777 777 777 777 776 776 776 777 779 780 779 779 780 780 780 780 780 781 781 782 783 784 785 785 786 788 792 794 793 794 795 795 797 799 803 803 801 801 801 800 800 801 801 801 803 804 804 808 808 806 809 813 818 826 831 828 832 839 839 839 838 835 832
788 787 787 786 785 784 783 782 781 781 780 779 779 778 778 777 777 776 776 776 776 776 776 776 776 777 777 777 776 777 777 777 780 781 780 780 780 781 780 780 780 781 782 782 783 784 784 784 785 787 789 795 797 795 796 796 797 797 799 802 802 801 801 801 801 800 802 802 801 803 803 806 811 811 812 811 812 823 836 841 839 841 844 843 842 840 837 834
788 787 786 785 784 783 783 781 781 780 780 779 778 777 777 776 776 776 776 776 776 775 776 776 776 777 777 777 776 777 776 775 781 782 780 781 780 781 781 781 781 781 782 782 783 784 784 785 787 789 792 797 799 798 798 798 798 799 800 801 801 803 801 801 802 801 802 801 802 804 804 808 813 818 823 817 818 833 844 846 846 846 847 846 845 842 839 836
787 786 786 784 783 783 782 781 780 779 779 778 778 777 776 776 775 775 775 775 775 775 775 775 776 776 777 777 777 777 776 776 781 782 781 781 781 781 781 781 781 782 783 783 784 784 786 787 789 793 794 798 800 800 800 799 799 801 802 801 801 803 801 801 802 802 802 800 802 803 805 811 815 824 832 830 835 846 849 849 849 849 849 848 847 844 843 842
787 786 785 784 783 782 781 780 779 779 778 777 777 776 775 775 775 774 774 774 774 774 775 775 776 777 777 777 777 778 779 781 783 783 782 782 781 782 781 782 782 782 783 783 784 785 787 789 792 794 795 799 801 801 801 800 800 802 804 802 802 803 802 802 802 804 803 801 804 804 806 813 816 823 834 840 846 849 850 851 850 850 850 849 848 847 848 849
787 786 785 784 782 781 781 780 779 778 777 777 776 776 775 774 774 773 773 773 774 774 774 775 776 777 776 777 777 778 782 784 784 783 782 782 782 782 782 782 782 783 784 784 785 786 788 791 793 795 797 800 801 801 802 802 803 804 805 804 804 804 803 802 802 803 805 804 806 806 811 818 820 825 836 844 849 850 851 852 851 851 850 849 850 852 852 853
787 786 785 784 782 781 780 779 778 777 777 776 775 775 774 773 772 772 772 772 773 773 774 775 776 777 777 778 777 777 783 785 784 783 783 783 783 782 782 782 783 783 784 785 786 786 788 792 794 794 797 800 801 802 802 803 804 804 805 805 804 804 803 802 801 802 806 806 806 810 818 824 823 825 839 849 850 852 852 851 852 850 850 852 854 856 856 857
787 786 785 783 782 780 779 778 777 777 776 775 775 774 773 772 771 771 771 772 772 773 774 775 776 776 777 778 776 778 785 785 784 784 783 783 783 783 783 783 783 783 784 786 786 787 788 790 792 793 795 799 801 803 803 802 802 803 805 806 805 805 804 804 803 804 807 806 805 811 820 824 821 822 838 851 851 852 853 852 853 851 853 857 858 859 860 860
787 785 784 782 781 780 779 777 777 776 776 775 774 773 771 771 771 771 771 772 772 773 774 775 776 777 778 778 778 782 786 785 784 784 783 784 783 783 783 783 784 784 784 786 787 787 788 789 791 793 795 798 801 803 803 801 801 803 804 806 807 806 805 805 805 805 806 806 807 811 818 824 825 828 842 851 852 853 853 854 855 854 858 861 861 862 862 863
786 785 783 782 781 780 778 777 776 776 775 774 773 772 771 771 771 771 771 772 773 773 774 776 777 778 778 778 782 785 785 785 785 784 784 784 784 784 784 784 784 784 785 786 788 788 788 790 790 792 796 797 800 801 801 802 803 803 803 804 806 806 804 804 805 805 805 805 807 808 815 829 837 842 851 852 853 855 854 857 858 859 861 863 864 865 865 866
786 784 783 782 781 780 778 777 776 775 775 774 773 773 772 772 772 772 772 772 773 774 776 776 778 779 777 782 786 786 785 785 785 785 784 784 785 785 785 785 785 785 785 786 788 788 789 790 790 793 796 797 799 801 800 803 804 803 805 805 805 808 806 805 806 807 806 806 808 805 813 836 848 850 853 852 853 855 857 861 862 863 865 866 867 868 869 869
785 783 783 781 780 779 778 777 776 775 775 774 774 773 773 773 773 773 773 773 774 775 776 777 779 778 779 785 787 785 786 786 785 785 785 785 785 786 786 786 786 786 786 787 788 789 789 790 791 793 796 798 799 800 801 804 804 803 806 807 809 811 807 807 810 809 806 808 810 805 813 839 854 855 855 854 855 857 861 866 867 867 868 869 870 870 871 872
785 784 782 781 779 778 777 776 775 775 774 773 773 773 773 774 774 774 774 774 775 776 777 778 779 778 781 787 787 786 786 786 786 786 786 786 786 786 787 787 787 787 787 787 788 789 790 790 791 794 798 800 799 800 802 804 806 806 807 809 814 813 807 807 812 810 807 809 813 808 816 842 857 860 859 857 857 859 864 869 870 871 872 872 873 873 874 874
784 783 782 781 779 778 776 776 775 774 774 773 773 773 774 774 775 775 775 776 776 777 778 779 779 778 781 786 786 786 787 787 788 787 787 787 786 787 787 788 788 788 788 789 789 790 790 791 796 800 799 800 800 800 804 807 809 810 808 809 815 816 810 809 809 812 811 810 814 812 823 847 859 863 863 860 861 863 866 871 872 873 874 875 875 876 876 876
784 783 782 781 779 778 777 775 775 774 774 774 774 774 775 775 776 776 777 777 777 779 779 779 779 779 783 787 787 788 790 789 788 788 788 787 787 788 788 789 789 789 789 789 790 790 792 795 800 802 802 805 805 802 805 811 811 812 813 814 820 820 816 812 806 812 814 809 816 823 835 855 862 865 867 865 865 866 869 873 875 876 876 878 878 878 879 878
783 782 782 780 779 778 777 776 775 775 774 775 775 775 776 777 778 778 779 778 778 779 778 779 780 778 784 789 790 791 791 790 790 789 788 788 788 788 789 790 790 790 790 792 792 793 796 799 802 801 803 806 805 802 804 809 807 809 814 813 818 821 820 814 806 812 816 811 821 831 844 862 865 867 869 869 869 869 873 875 876 879 879 880 880 880 881 881
783 782 781 780 779 778 777 777 776 776 776 776 776 776 777 778 778 778 779 779 781 782 782 786 786 782 786 792 792 792 791 791 790 789 789 790 789 789 789 790 791 791 792 795 795 797 799 800 803 803 804 806 805 804 802 805 804 804 810 810 810 813 816 816 811 817 819 817 830 836 844 863 867 869 871 871 873 872 876 878 878 881 881 882 882 882 884 884
782 782 780 780 779 778 778 777 777 777 777 777 778 777 778 778 779 783 785 785 789 792 791 793 793 791 791 794 793 792 792 791 791 791 791 790 789 790 791 791 793 794 796 798 798 802 803 801 804 804 806 806 806 808 807 809 809 807 810 811 813 811 810 814 814 821 822 820 841 850 852 867 871 873 875 873 876 877 878 880 881 883 883 884 885 885 887 886
781 781 780 780 779 779 778 778 779 778 778 778 778 778 780 780 780 785 790 792 795 795 794 795 794 794 794 795 794 794 793 792 792 793 791 792 791 790 793 794 794 796 802 803 801 803 804 802 805 808 812 811 809 812 811 811 810 811 812 811 818 816 810 815 817 824 823 820 846 858 855 869 875 876 880 877 879 882 883 884 884 886 886 886 888 888 888 888
781 780 780 779 779 779 779 779 779 779 780 779 779 780 783 783 782 784 788 793 796 795 794 795 794 795 796 795 795 795 794 794 794 794 793 793 792 792 796 796 795 800 806 805 802 804 805 804 808 815 819 816 814 815 811 811 812 812 815 814 817 817 815 818 820 826 824 822 846 856 852 869 879 878 882 881 884 887 886 887 887 888 889 889 890 890 889 889
780 780 779 779 780 779 779 780 780 780 780 779 780 782 784 784 785 785 785 790 796 796 796 796 796 797 797 796 797 795 796 799 799 797 797 795 795 797 797 797 800 803 806 803 801 805 807 807 813 819 820 813 813 817 812 812 816 816 817 816 816 820 816 812 817 828 830 829 842 850 853 870 879 880 884 884 885 888 888 889 890 889 891 892 892 892 891 891
780 779 779 779 779 779 780 780 780 781 781 781 782 783 785 784 785 785 786 791 797 797 797 798 798 799 799 798 798 797 798 803 804 802 800 797 798 800 799 801 803 805 808 806 804 806 809 814 819 820 818 812 810 817 816 811 817 820 820 817 815 819 815 812 821 828 832 836 841 844 844 855 870 875 880 886 885 887 889 889 891 891 892 893 892 893 893 893
780 779 779 779 779 779 780 779 781 782 782 783 783 784 786 785 786 786 785 792 797 798 798 798 798 799 800 799 799 799 800 803 806 805 803 802 802 801 801 804 803 806 812 810 806 807 812 819 821 816 815 813 809 815 821 815 815 818 818 818 816 815 814 817 824 823 823 829 835 835 824 831 863 874 874 884 885 886 890 889 891 892 892 893 893 894 895 895
780 779 779 778 778 779 779 780 782 782 783 785 785 786 786 786 788 786 785 792 795 798 799 798 800 800 800 801 801 800 800 803 807 805 804 804 804 802 802 805 806 808 813 811 808 812 818 820 819 813 812 813 810 816 828 823 814 814 819 823 823 821 818 817 819 818 817 819 827 832 819 822 853 869 873 883 885 886 890 890 891 893 893 894 894 895 896 896
780 780 780 778 779 779 779 781 782 782 784 785 786 787 787 787 787 785 787 791 793 798 800 799 800 801 801 804 804 800 799 804 806 806 806 804 805 804 801 805 806 808 815 810 807 818 824 819 816 813 810 812 812 817 830 827 814 815 824 828 827 822 817 816 817 817 817 820 827 833 828 822 832 857 877 881 884 889 890 891 892 892 894 895 895 896 897 897
782 781 780 779 779 779 780 781 782 784 785 785 787 787 787 788 787 786 787 788 794 801 801 800 800 800 803 804 805 805 806 809 805 804 808 806 805 804 801 810 812 812 819 810 805 824 831 823 822 818 811 814 820 825 832 830 819 820 829 830 829 826 821 820 819 819 823 825 824 828 834 827 824 854 884 881 880 887 889 892 893 893 895 895 896 897 897 898
783 781 781 781 780 780 781 780 782 784 785 786 788 787 788 789 786 788 789 788 796 804 803 801 801 803 806 806 808 812 812 813 810 808 810 807 806 805 805 815 816 815 820 813 812 828 833 829 831 827 822 823 829 833 834 830 823 825 832 829 828 830 828 827 824 821 826 828 823 823 829 826 821 850 881 879 873 877 884 891 892 893 896 895 897 898 897 899
783 782 783 782 781 782 781 782 783 784 785 787 787 788 790 788 788 791 791 790 797 806 805 802 805 809 810 806 809 817 816 817 821 816 811 810 809 809 812 817 816 815 820 820 823 832 833 832 833 834 835 835 835 835 834 834 830 829 830 823 823 826 825 829 830 828 829 829 829 828 827 823 819 842 873 876 874 877 882 888 890 892 895 894 896 898 898 899
784 784 783 782 783 782 782 784 784 784 786 786 788 790 788 790 795 792 791 796 801 805 806 809 815 816 813 811 812 820 821 821 827 820 812 817 815 814 817 813 811 815 820 823 826 831 831 831 835 838 840 839 835 832 833 836 834 830 825 819 822 826 827 831 832 834 833 828 835 840 840 831 817 836 871 879 880 881 879 883 888 890 893 895 896 897 898 898
785 784 784 783 783 783 783 784 784 786 786 786 789 789 789 794 796 790 795 801 801 805 810 814 820 820 819 820 821 828 827 824 831 830 827 832 831 834 835 828 824 819 817 824 827 829 832 835 840 840 839 840 835 828 828 831 830 828 825 822 825 832 836 836 835 842 840 834 843 845 839 833 826 849 880 881 881 883 879 882 886 889 893 895 897 896 898 899
786 786 785 784 784 784 784 785 786 786 786 788 789 790 794 794 791 797 806 805 802 812 818 818 824 828 821 817 823 834 832 828 833 834 837 840 838 846 850 851 852 830 816 826 829 827 830 836 841 837 836 842 839 829 825 827 828 827 825 823 827 835 841 841 845 852 846 838 849 849 838 829 828 859 888 883 884 887 884 886 886 889 893 893 895 897 897 899
787 787 786 786 786 785 786 786 786 787 787 788 787 791 797 792 794 807 811 812 818 822 823 824 826 826 822 822 830 836 829 831 840 836 835 834 829 836 842 847 855 842 827 829 830 828 824 826 839 843 841 844 845 842 838 837 833 834 838 833 827 829 830 834 839 840 841 844 851 848 837 821 819 858 891 887 887 889 885 889 889 889 893 892 895 897 896 898
787 788 787 787 787 786 788 787 787 788 787 787 790 795 795 786 794 806 805 814 826 821 824 831 822 816 824 831 836 838 828 828 840 838 835 836 832 837 843 844 853 850 831 819 827 842 836 832 846 852 850 850 848 850 852 844 834 838 847 838 830 831 830 840 850 848 849 852 849 839 836 846 858 881 897 887 886 891 887 889 891 890 893 893 894 896 896 897
788 788 787 788 788 788 789 787 789 789 788 789 790 794 796 793 801 811 812 817 821 817 820 823 817 813 821 828 832 837 832 829 837 834 836 847 846 849 855 853 858 856 840 824 827 841 839 839 852 852 850 855 853 851 854 846 834 837 842 835 840 847 839 841 855 863 859 847 841 833 831 856 871 874 888 889 885 890 889 888 891 890 892 893 893 894 895 896
787 788 789 790 790 789 789 789 790 789 789 791 787 794 810 814 817 824 823 823 821 820 815 808 812 815 815 820 828 833 829 829 835 828 830 844 844 847 858 857 857 859 856 846 835 838 835 834 851 855 846 852 858 854 854 854 847 839 838 839 847 851 844 841 843 853 858 846 838 833 830 840 839 845 882 897 885 886 888 887 890 890 890 892 892 892 894 895
788 789 790 791 790 790 791 789 790 789 790 792 793 807 824 824 824 829 829 826 822 821 813 803 812 823 820 818 825 836 833 824 829 829 829 836 837 844 855 855 856 861 864 857 842 844 841 828 845 862 852 851 859 852 845 852 855 848 845 849 847 838 837 845 843 842 849 847 838 838 847 845 829 838 873 885 881 884 884 885 888 888 889 889 889 891 893 894
789 789 790 793 792 791 791 788 791 792 791 795 796 806 824 828 828 832 831 829 824 818 813 810 819 829 830 826 825 839 841 828 828 832 828 830 835 846 856 855 856 859 864 861 847 850 850 829 834 858 861 856 856 852 846 847 851 851 850 854 855 847 843 847 848 843 843 844 843 843 845 839 837 852 867 871 876 879 879 884 886 884 886 887 887 890 891 892
789 789 789 794 791 790 792 789 792 791 791 805 810 811 826 831 829 833 832 830 828 821 817 818 821 822 830 839 836 841 850 843 837 834 833 837 839 846 859 862 860 858 861 862 854 853 854 837 833 853 863 856 855 863 867 864 861 854 849 849 852 856 856 852 855 861 854 843 847 849 833 828 850 871 871 869 873 874 876 881 881 881 884 884 885 887 888 890
789 788 790 794 791 792 792 789 804 812 806 816 826 826 831 828 826 833 833 831 832 830 827 826 824 823 828 836 838 843 849 848 846 843 843 846 841 844 861 867 866 863 857 855 854 852 850 842 840 850 856 856 867 882 885 882 880 871 863 860 859 858 854 844 851 876 879 857 855 861 838 831 861 876 871 872 872 871 875 877 878 881 881 882 884 885 886 888
787 787 791 793 791 792 791 798 826 839 822 817 827 830 830 827 828 832 832 831 831 831 833 831 832 835 834 834 840 848 847 844 850 849 847 853 853 853 866 872 871 870 861 852 855 860 859 851 847 857 868 873 880 887 887 885 886 882 879 881 879 869 853 837 835 861 882 876 878 883 856 843 870 882 874 876 875 872 873 874 876 879 879 881 883 883 885 887
788 789 791 793 793 793 792 800 822 834 828 829 836 836 833 831 831 831 832 832 831 830 830 833 838 837 838 842 843 845 845 841 848 853 853 862 866 864 872 874 871 872 865 855 856 861 859 851 847 858 874 880 882 888 891 891 887 880 881 889 887 877 868 862 862 867 870 868 873 876 855 845 868 882 875 875 877 873 873 873 875 877 879 881 882 883 885 886
792 793 794 793 792 792 791 791 801 818 833 837 835 834 835 836 835 831 831 834 835 833 830 836 844 839 843 853 846 847 849 838 843 859 861 862 866 869 874 875 872 869 861 857 859 855 849 847 844 845 853 857 861 866 869 878 885 879 881 894 894 890 886 882 887 882 863 858 861 850 837 845 868 880 876 875 875 872 873 875 875 876 877 879 881 883 884 885
791 792 795 795 793 793 798 800 800 812 833 835 829 833 834 835 839 837 836 839 843 842 835 838 847 845 851 857 850 855 859 844 844 859 864 865 867 870 873 872 873 869 863 865 866 856 854 859 851 834 827 825 823 832 846 866 882 880 884 894 894 893 884 869 872 869 853 865 871 841 829 851 873 878 873 873 875 872 873 876 875 876 877 878 881 882 883 885
787 786 790 794 797 801 810 820 814 809 823 824 820 831 833 830 839 842 839 840 843 845 841 841 848 846 847 849 845 850 860 858 854 856 863 867 866 869 874 872 871 868 864 866 867 865 868 877 873 852 835 835 838 855 881 887 878 872 879 888 889 893 891 877 868 859 855 872 872 849 848 858 865 872 873 871 874 873 873 875 875 876 877 878 881 881 882 884
786 785 791 792 793 800 809 820 819 811 815 812 808 824 832 830 837 839 837 840 843 845 844 845 848 839 835 840 838 843 859 864 858 857 865 870 869 871 874 871 869 866 863 865 869 869 860 863 883 881 871 883 889 893 908 901 880 874 877 880 885 892 895 880 861 858 865 863 849 858 877 865 851 863 870 867 871 872 871 873 872 873 875 877 880 880 881 882
789 791 805 801 791 797 801 808 817 817 816 816 819 830 830 828 832 831 833 841 844 843 838 837 844 840 837 839 831 836 855 856 853 862 869 870 871 870 867 868 868 865 866 867 870 870 853 856 890 896 886 904 912 904 908 901 890 891 886 880 885 889 888 877 865 871 871 848 838 865 886 866 849 859 865 865 869 868 867 870 871 873 875 876 878 879 879 880
797 797 811 810 801 809 815 817 822 817 815 821 825 831 828 823 827 835 842 841 837 843 838 826 834 845 848 847 835 832 843 837 835 856 868 868 871 869 863 862 864 868 868 864 871 877 860 863 898 902 886 898 907 904 907 900 890 891 887 883 886 886 886 880 875 882 878 861 865 885 888 872 861 861 863 864 867 868 869 872 873 873 873 873 875 876 876 877
792 789 801 807 810 821 826 826 822 813 818 825 819 825 834 825 823 838 851 842 827 835 841 828 834 854 858 852 839 833 841 838 831 844 859 862 864 865 860 854 860 871 869 864 874 878 863 868 898 899 879 886 901 905 906 901 895 888 881 884 890 889 891 889 884 890 888 877 882 891 888 877 864 861 864 865 868 872 871 870 871 870 871 872 873 874 874 875
787 787 791 793 803 820 822 825 826 812 812 818 813 822 833 826 825 836 847 854 845 837 841 837 838 855 860 852 843 840 849 854 846 848 856 855 854 860 859 856 861 865 864 870 876 871 866 877 899 890 862 868 898 905 898 901 903 892 877 877 886 887 884 882 881 882 876 869 874 880 873 860 852 858 865 865 867 870 867 867 868 868 870 872 870 870 871 871
788 789 791 785 795 818 822 823 828 813 804 816 822 828 830 828 837 836 829 848 862 854 853 854 845 845 849 845 845 848 853 858 858 860 864 862 862 868 867 866 868 863 864 873 877 881 880 873 882 881 852 857 898 909 899 895 876 854 851 858 868 876 875 874 876 875 869 865 864 861 851 847 853 860 860 861 865 866 864 865 865 864 867 869 868 868 868 868
Wind_Speed
6 7 7 8 8 7 7 7 7 8 7 7 7 7 7 7 8 8 7 7 6 6 5 6 5 5 4 4 5 3 3 7 11 13 10 7 8 5 4 3 2 1 2 4 8 7 6 6 5 5 6 3 2 1 2 2 2 2 2 2 2 2 2 4 4 5 3 1 1 3 2 4 3 2 1 4 10 10 11 11 11 14 15 13 12 12 13 20
6 8 8 8 8 8 8 8 8 8 8 8 8 7 7 7 8 8 8 7 6 6 6 6 6 5 4 3 4 1 6 11 14 13 9 8 9 5 3 2 1 0 2 5 7 7 6 4 3 4 4 2 1 2 2 1 1 2 2 2 1 2 1 3 5 4 2 2 2 2 2 4 3 1 1 2 7 9 10 7 9 12 12 13 15 16 17 22
7 8 9 9 9 9 9 8 8 8 8 8 8 7 7 7 8 8 8 7 7 6 6 6 6 5 3 4 3 3 8 10 10 6 7 9 10 5 3 1 1 1 2 5 6 6 7 7 6 4 3 2 2 2 2 1 1 1 1 2 1 2 0 1 3 2 2 2 4 2 2 4 3 1 0 3 7 10 9 5 6 9 9 11 13 17 18 21
7 8 9 10 10 9 9 8 8 8 8 8 8 8 8 8 8 8 8 7 7 7 7 6 4 4 4 4 3 6 6 6 3 4 6 9 9 5 2 2 2 3 3 5 6 6 9 10 7 4 3 2 3 3 2 1 1 1 2 3 1 2 2 1 1 1 1 2 4 2 3 5 4 5 4 2 6 8 8 7 8 9 8 9 11 15 18 22
7 8 10 10 11 10 9 9 9 8 8 8 8 8 8 9 8 8 8 8 8 7 6 4 3 3 4 5 4 5 3 3 1 3 6 7 7 3 1 2 3 4 5 7 8 9 10 9 6 4 3 2 2 2 1 1 1 1 0 2 1 2 2 1 2 1 2 3 4 3 4 4 3 7 9 6 6 4 6 8 9 9 9 9 11 14 19 24
8 9 11 12 12 11 10 9 9 9 9 8 9 9 8 9 8 8 8 9 8 5 3 2 2 3 5 6 4 2 3 3 1 5 6 5 7 3 1 1 3 5 5 7 8 9 8 7 5 3 2 2 2 1 1 2 2 2 1 2 1 2 1 1 1 1 2 5 4 2 3 4 6 8 9 11 10 7 7 8 9 11 11 12 14 16 19 21
8 10 12 14 12 11 10 9 9 9 9 9 9 8 8 9 8 9 9 8 7 4 3 2 2 4 7 6 4 3 4 2 4 6 5 5 4 2 1 0 4 6 5 7 7 6 6 6 4 3 3 3 2 1 1 3 4 3 1 3 2 1 2 2 2 3 4 4 0 1 5 5 6 7 8 12 11 9 9 9 11 13 14 17 18 18 19 19
9 10 13 14 12 11 10 9 9 9 9 9 9 8 8 8 9 10 8 7 5 3 3 3 4 6 8 7 5 3 4 1 7 7 5 5 3 1 0 1 5 6 6 7 6 6 5 6 4 2 3 1 2 2 0 3 4 1 2 2 2 0 3 4 3 3 4 2 1 6 8 6 8 9 8 10 10 8 8 9 11 12 16 18 17 17 18 19
9 11 13 14 12 11 10 10 9 9 9 9 9 9 9 10 10 8 5 4 3 3 2 3 6 9 9 5 3 4 2 2 7 7 4 4 4 3 1 3 5 8 8 7 7 9 5 3 3 4 3 1 3 3 2 3 1 3 4 2 1 2 4 3 2 2 3 0 2 8 8 8 9 9 9 8 8 7 8 10 10 12 16 16 14 16 18 18
10 12 13 13 12 11 10 10 10 10 10 9 10 10 10 9 5 1 1 2 2 3 3 6 9 10 9 1 4 4 2 4 7 5 4 4 4 4 3 4 6 9 9 6 6 7 4 5 5 5 5 2 2 3 3 4 2 3 5 2 1 2 4 2 1 1 3 1 2 7 7 7 2 2 6 6 7 6 9 11 11 13 16 14 13 15 17 18
11 13 13 13 11 10 10 10 11 10 10 10 11 11 9 4 1 2 3 4 1 2 7 9 9 10 6 2 5 3 3 5 6 5 4 3 4 6 7 6 5 9 10 6 5 5 6 9 8 5 2 2 3 2 1 3 2 2 5 2 3 4 3 2 1 1 2 1 4 9 7 4 6 4 6 7 7 7 10 12 13 14 13 12 13 13 16 18
12 13 13 12 10 10 10 11 10 10 10 10 10 9 5 2 3 4 4 2 1 6 9 10 10 9 6 7 5 2 4 4 6 6 3 2 5 7 8 7 6 8 9 6 4 5 7 9 9 6 1 3 4 2 2 1 3 2 3 3 4 6 3 3 1 2 3 3 5 9 6 5 8 7 8 7 7 8 12 13 12 13 11 11 11 11 13 17
12 13 13 11 11 11 11 10 10 10 11 9 7 5 3 5 6 6 4 4 7 10 10 11 11 7 3 5 2 4 5 4 4 4 2 3 5 5 6 7 8 8 8 8 6 5 7 8 8 6 2 5 3 1 3 3 3 2 3 3 1 6 3 4 1 1 4 3 4 6 3 3 7 8 7 6 6 9 12 12 11 10 9 9 9 9 11 15
13 13 12 11 12 12 11 11 10 10 9 6 4 3 6 7 7 7 7 9 11 11 11 11 7 2 4 2 1 5 6 4 4 5 6 5 5 6 6 6 8 10 10 10 8 6 7 8 8 6 2 3 2 1 4 5 3 1 2 2 2 2 3 6 2 3 5 1 1 4 3 2 6 8 6 5 7 10 12 11 10 9 9 9 9 9 9 13
13 13 12 12 13 12 12 12 11 10 7 3 4 6 8 7 6 8 10 11 10 10 10 7 3 2 5 1 1 5 5 6 7 9 9 6 6 5 5 6 7 10 11 10 9 8 8 9 8 4 0 2 3 4 3 3 3 2 1 1 1 3 4 6 2 3 4 2 5 3 3 3 5 8 9 7 8 11 11 10 9 10 10 9 8 9 8 10
13 12 12 12 13 13 13 12 10 7 4 4 6 8 8 8 7 8 10 10 9 8 6 3 1 3 4 1 1 4 5 6 7 8 9 8 7 6 5 7 6 7 9 9 8 8 8 7 5 2 1 2 4 5 3 3 3 3 1 2 1 3 2 3 2 2 1 2 5 3 3 3 4 7 9 9 9 10 11 10 10 10 9 9 8 8 8 9
12 11 12 12 13 13 13 11 7 4 5 7 8 8 9 8 7 8 9 8 7 5 5 3 2 3 3 2 2 3 3 5 6 6 8 9 7 6 6 5 4 6 8 8 6 5 7 5 1 0 2 3 3 4 3 0 2 2 1 1 1 2 2 1 2 3 3 3 3 5 5 5 5 7 9 10 9 9 10 9 9 9 8 8 7 8 9 9
11 11 12 12 12 12 12 9 5 6 8 9 9 10 11 10 9 10 8 5 4 5 5 4 4 2 1 2 1 2 3 4 7 8 6 8 8 6 5 4 4 6 6 6 4 3 4 4 2 1 2 2 2 4 3 3 3 3 2 2 1 1 2 2 3 1 4 4 4 6 7 6 6 7 8 9 9 9 10 8 8 8 8 8 7 8 9 9
11 12 12 11 10 11 10 7 5 7 10 11 13 15 15 13 12 13 14 10 5 3 2 2 3 2 1 1 1 2 3 3 6 9 8 6 6 7 7 6 5 6 4 2 2 2 2 3 3 2 2 2 3 5 5 3 5 6 4 4 4 3 2 3 3 3 3 7 4 4 7 6 6 6 7 8 8 10 9 8 8 7 7 8 8 8 8 8
11 12 12 9 8 9 8 5 6 8 12 14 13 12 9 7 6 6 12 12 5 1 1 2 1 2 3 2 3 3 5 6 6 10 13 9 4 5 6 6 6 6 3 2 1 1 3 3 2 3 3 3 3 5 5 4 5 5 5 4 3 3 3 3 2 4 2 6 3 4 9 6 6 6 6 6 7 9 9 8 8 7 7 7 8 8 8 7
12 12 10 7 6 8 6 5 7 9 10 8 6 4 2 2 3 1 2 5 3 2 3 2 2 4 3 2 4 4 2 6 8 11 15 10 3 2 3 4 5 4 1 2 2 2 4 3 4 2 1 2 4 6 6 4 5 6 4 4 2 2 3 3 0 4 3 4 2 5 8 6 5 5 5 6 8 8 8 7 8 8 7 6 7 8 7 6
12 12 8 6 5 6 4 4 6 8 6 2 3 5 3 2 5 5 4 4 3 5 5 3 4 4 3 3 6 5 2 5 7 10 15 12 5 2 1 4 5 2 1 1 3 3 2 2 4 1 1 2 4 5 6 4 4 4 3 4 1 2 2 2 2 5 5 4 4 6 5 4 4 5 6 6 7 7 6 7 7 7 7 6 6 7 7 8
12 10 6 5 4 4 3 4 5 5 3 2 5 6 5 5 6 5 4 5 2 4 5 4 4 4 4 4 8 7 5 4 3 6 15 12 4 2 2 4 4 3 2 2 4 4 2 3 3 1 3 5 5 4 6 5 3 3 3 3 2 2 1 1 2 4 4 3 5 7 4 2 3 4 5 6 6 6 7 8 8 7 7 6 6 7 7 8
11 8 5 4 2 4 5 5 4 4 4 6 8 8 6 7 6 4 4 4 2 2 2 1 2 2 3 3 8 6 4 3 1 5 13 8 2 2 3 4 4 3 1 2 6 5 1 2 1 2 3 5 5 4 5 4 1 1 2 4 3 2 3 2 0 2 4 5 6 8 2 1 4 4 3 4 5 6 6 6 7 6 6 6 6 7 7 7
10 6 5 3 1 4 5 4 4 7 6 6 8 8 7 6 3 2 3 4 2 1 1 1 1 2 2 3 8 3 3 3 2 3 8 7 1 1 2 2 3 2 2 4 7 5 1 1 1 4 3 5 6 4 2 3 2 1 2 4 5 5 5 2 2 2 4 3 3 6 1 2 3 5 4 4 4 4 5 5 6 5 5 5 6 6 6 6
8 6 6 4 2 3 3 2 4 8 5 4 7 8 6 4 2 2 3 4 2 2 1 0 1 3 3 5 7 2 3 2 1 3 7 7 3 2 3 1 2 2 3 4 4 3 2 3 2 4 4 6 6 3 2 1 5 0 2 3 4 5 4 3 4 3 1 2 3 4 2 3 1 3 5 5 4 4 4 5 5 4 4 5 5 5 5 5
7 5 6 6 2 4 1 2 6 7 3 3 8 8 4 2 2 2 2 4 3 1 1 0 1 4 3 4 5 1 2 3 1 4 7 8 5 1 3 2 1 1 1 2 2 1 3 5 6 5 5 5 4 3 1 1 5 2 1 4 4 5 5 4 4 3 2 1 1 2 3 1 3 2 4 6 5 3 3 3 3 3 4 4 4 4 4 4
6 4 5 7 5 4 2 5 8 4 2 6 8 6 3 1 1 2 4 2 2 1 2 1 1 4 3 3 6 3 1 3 1 2 7 8 6 2 3 2 3 3 2 2 3 0 3 5 5 4 5 4 2 1 1 1 4 1 1 4 4 4 4 3 4 3 0 2 2 3 2 1 4 1 3 5 4 2 3 2 1 2 3 3 3 4 4 4
6 4 4 7 8 6 5 7 6 4 5 8 8 6 3 1 2 4 5 1 1 2 1 1 1 3 4 5 7 4 3 4 1 4 8 7 6 5 4 1 4 5 5 4 4 1 2 1 1 2 4 2 1 2 2 1 2 1 3 4 4 4 4 4 4 3 2 1 3 5 4 2 4 2 3 4 4 3 4 4 2 2 3 2 3 3 3 3
7 5 3 4 6 6 6 6 6 6 7 8 8 5 1 2 4 6 2 2 0 1 1 1 1 3 4 4 5 5 5 4 3 5 6 4 6 7 3 1 4 5 5 7 5 1 1 2 0 3 2 1 2 3 2 2 1 2 4 4 5 5 4 4 2 4 3 2 4 3 4 3 2 2 2 2 1 2 5 4 3 4 4 3 3 3 2 2
9 7 3 2 3 4 3 4 6 8 9 8 7 2 2 3 4 5 2 3 1 1 1 2 2 3 5 4 2 5 4 4 6 5 5 4 6 7 4 1 3 5 4 4 4 3 4 4 2 2 2 1 1 1 1 1 1 3 3 4 4 4 4 4 4 3 2 5 4 4 2 2 3 3 2 2 1 2 3 5 6 6 5 4 3 3 2 2
9 8 5 3 3 4 5 5 6 9 9 9 6 2 4 2 1 2 2 3 1 1 1 1 2 3 4 3 3 4 3 3 5 4 3 3 4 4 4 1 1 3 2 0 2 3 3 2 3 3 2 4 3 1 1 4 4 4 4 5 4 1 2 2 2 0 3 5 3 3 2 1 3 2 2 3 2 2 2 4 6 7 6 4 4 3 3 2
7 7 6 6 5 6 7 7 7 9 9 8 4 4 7 4 2 3 1 2 0 1 1 2 2 2 3 3 3 3 2 2 3 4 2 2 4 3 2 1 2 2 2 2 2 2 1 3 5 5 3 4 4 2 1 1 2 3 4 4 4 2 1 2 2 0 4 3 2 4 2 1 2 0 2 2 3 2 3 4 4 5 6 5 4 4 4 3
7 6 7 9 9 8 7 6 7 8 8 6 4 5 5 1 4 3 1 2 2 2 2 2 2 3 4 3 1 2 2 2 2 3 3 2 3 2 1 2 2 2 3 3 2 3 2 2 3 3 2 4 4 2 2 2 2 1 3 5 4 4 3 4 3 2 3 2 3 4 1 3 2 1 2 0 2 2 3 4 4 5 4 4 4 4 4 3
8 8 9 11 11 9 6 5 6 7 6 5 6 5 3 4 3 2 2 4 2 1 2 2 3 5 5 3 2 1 1 0 1 3 4 3 2 1 1 2 3 2 3 3 1 2 2 3 3 2 2 3 3 2 1 2 1 0 2 4 2 3 3 3 3 4 3 1 3 2 2 2 2 1 2 2 2 2 3 4 4 4 4 4 4 4 4 3
7 7 9 10 11 9 5 4 5 5 4 5 6 2 4 4 2 2 2 1 2 3 2 2 4 4 2 3 3 3 1 0 2 3 3 2 1 2 1 2 2 2 2 3 2 2 2 2 3 3 2 2 2 2 2 2 1 1 2 2 2 2 6 5 1 1 3 1 2 2 2 2 1 1 2 3 3 3 4 4 4 5 5 4 4 3 3 3
5 5 6 9 11 8 4 4 4 4 3 6 5 3 4 2 2 2 0 1 1 3 5 2 1 2 1 1 2 3 2 1 1 2 1 1 0 2 2 1 1 1 1 1 2 2 3 1 3 3 0 1 1 1 2 2 2 3 1 3 1 2 4 4 0 2 2 2 2 1 2 2 1 1 1 2 5 6 6 5 4 5 5 4 4 4 4 4
4 4 4 8 11 8 4 3 4 4 5 5 2 2 2 2 1 1 1 1 1 3 3 3 1 1 2 3 2 2 1 1 1 2 2 1 1 3 3 0 0 2 1 1 1 0 3 2 4 2 1 4 5 3 1 3 2 3 2 1 3 3 1 2 2 1 1 2 3 3 3 2 4 3 2 5 8 8 6 6 5 5 6 5 4 4 4 4
2 2 2 6 9 7 4 3 3 4 5 3 2 2 2 2 2 0 1 1 1 2 2 3 1 1 2 3 3 0 1 1 2 2 2 1 0 2 3 0 0 1 2 1 2 1 2 3 3 3 1 3 5 3 1 3 4 2 2 3 2 3 3 2 2 2 2 2 2 3 4 3 4 3 5 7 8 7 6 6 6 7 6 5 4 4 5 4
2 2 1 5 7 6 3 4 4 6 4 3 4 2 1 1 1 0 1 1 0 1 1 3 2 2 2 2 3 2 1 1 2 2 1 1 1 1 1 1 0 1 3 2 2 1 3 4 2 4 4 2 2 1 2 2 1 2 2 1 1 1 1 1 0 2 3 3 2 1 4 5 3 1 3 5 4 6 7 6 6 6 6 6 5 5 5 5
3 2 2 5 6 3 4 7 6 3 3 1 1 1 1 1 1 1 3 2 2 0 1 3 3 3 3 2 2 3 2 2 1 1 1 1 1 0 0 2 2 1 2 2 2 1 1 3 3 1 2 1 1 1 1 2 2 2 2 2 3 2 3 2 2 2 2 2 3 3 4 6 3 0 1 2 2 4 6 6 5 5 6 6 5 5 5 5
4 1 2 6 5 1 6 6 2 2 4 1 1 1 1 2 2 1 3 3 3 1 2 3 3 2 3 2 1 2 3 1 1 1 1 1 1 0 0 2 2 0 1 1 1 0 2 4 4 1 2 2 3 2 1 0 1 3 2 1 2 2 4 5 4 3 1 1 1 3 2 6 3 1 1 1 3 3 5 6 5 5 6 6 5 5 5 5
3 3 1 8 5 2 7 4 1 2 1 2 2 1 2 1 1 0 2 3 2 1 2 2 1 2 1 1 2 3 2 1 2 2 1 1 1 1 1 2 2 1 1 2 0 1 2 3 4 1 4 3 4 3 2 3 3 2 0 1 2 1 3 5 5 3 3 3 2 2 3 6 4 2 2 3 3 3 5 6 6 5 4 5 5 5 5 4
2 3 1 7 5 1 3 2 2 0 1 2 1 2 1 1 2 1 1 1 1 1 2 1 0 1 1 2 3 3 2 1 2 1 1 1 1 2 2 1 1 1 1 2 2 1 1 1 4 3 3 5 5 5 4 3 1 2 2 1 1 2 5 4 2 3 1 4 6 4 5 6 3 3 2 2 1 3 5 4 5 5 4 5 5 4 4 4
3 1 2 6 8 5 3 3 4 5 3 2 2 1 1 2 1 1 2 2 1 2 3 1 1 2 3 3 4 3 2 1 1 1 1 1 1 1 2 2 1 1 1 0 0 1 2 1 3 5 3 3 2 2 4 3 2 1 1 2 2 3 6 3 2 3 3 4 5 5 5 4 4 4 2 2 2 3 4 3 4 4 4 5 4 4 4 4
2 1 2 4 8 6 2 1 4 6 4 4 3 1 2 2 1 0 2 2 1 2 3 1 2 2 3 3 4 4 3 3 2 2 2 2 1 1 1 2 1 2 1 4 5 4 4 2 2 6 6 5 5 5 3 1 2 2 2 4 3 2 4 5 4 4 5 3 3 6 5 1 5 5 4 5 5 5 5 4 5 5 4 4 4 4 5 5
2 2 2 0 3 3 3 3 3 4 3 5 3 2 3 3 1 0 1 1 1 2 3 2 1 2 2 4 4 2 1 3 3 2 2 1 1 2 3 1 1 3 1 4 4 4 5 1 1 5 4 3 5 4 2 1 2 4 4 5 5 3 4 5 5 5 5 5 4 8 5 4 6 7 8 8 6 6 6 6 7 6 5 4 4 4 5 6
1 2 2 1 0 1 1 0 3 5 4 3 2 2 4 3 2 2 1 1 1 1 2 1 1 1 4 6 5 3 1 2 1 1 1 1 0 2 3 1 2 4 3 3 3 3 6 2 2 4 2 2 2 2 3 1 1 2 2 5 6 5 7 8 8 6 6 6 6 4 6 7 7 6 8 9 8 8 8 7 5 3 3 3 3 4 6 7
1 2 1 2 1 3 1 0 4 7 5 4 2 2 5 6 5 3 0 2 1 2 1 2 3 0 2 3 6 5 4 3 1 3 3 3 2 2 1 1 1 3 3 3 3 2 4 2 2 3 2 2 3 5 3 3 2 2 3 5 6 6 8 7 6 5 6 6 4 5 5 9 8 7 8 8 7 7 5 2 2 3 4 5 5 6 7 7
2 3 2 3 3 2 1 2 4 5 3 2 1 1 3 7 7 2 0 2 2 2 0 3 5 3 2 3 7 4 6 5 5 6 6 6 3 2 2 3 2 2 3 2 2 2 2 2 1 3 2 4 5 4 3 4 2 3 5 6 5 4 5 6 5 3 4 6 5 5 4 10 7 8 8 6 5 4 3 4 5 6 6 5 6 6 7 7
3 3 5 5 3 0 1 2 3 4 1 1 2 3 3 6 8 4 1 0 2 3 2 4 7 5 2 3 5 1 5 5 5 6 7 7 4 3 2 2 4 4 2 2 1 3 3 3 1 4 2 4 4 4 4 5 3 4 9 10 10 7 5 5 5 5 7 5 3 4 4 8 4 5 5 3 4 5 6 7 7 6 6 6 7 7 8 8
5 4 3 5 3 1 1 2 2 2 2 2 2 3 2 4 5 4 3 1 0 1 1 4 8 5 3 3 1 3 3 5 5 4 5 6 5 6 4 3 5 6 4 3 2 2 3 4 2 3 2 5 3 3 3 5 4 5 9 10 13 12 8 4 4 7 9 7 6 5 6 5 2 5 5 4 5 6 7 7 6 6 6 7 7 8 8 8
Wind_Direction
352 358 356 357 352 351 346 340 338 334 333 330 333 328 319 320 315 320 322 318 313 308 306 302 304 298 304 328 322 331 82 111 103 87 78 27 5 37 66 84 126 122 95 127 144 130 100 82 82 100 103 88 24 360 38 20 22 47 89 146 182 151 160 178 173 191 171 134 317 352 20 115 108 41 35 69 78 88 83 80 80 70 64 55 44 28 14 27
350 351 350 356 355 348 343 341 338 332 331 330 335 324 317 320 316 319 318 315 311 306 300 296 295 283 288 300 293 47 109 112 94 71 51 26 21 42 58 92 129 101 125 134 143 135 117 92 83 89 67 38 359 6 30 3 31 84 127 163 192 132 171 181 157 184 159 112 152 1 20 106 109 154 339 72 101 91 82 81 79 71 51 36 26 20 19 31
348 348 350 354 352 344 337 339 337 331 330 331 331 322 318 322 318 317 315 311 307 305 299 293 287 272 263 256 255 134 124 109 87 38 25 34 22 27 48 30 65 72 138 141 140 138 133 124 102 86 62 43 13 27 49 358 334 108 106 137 168 116 200 198 154 201 213 155 136 72 31 69 30 347 31 104 95 69 66 41 47 63 36 23 17 16 20 31
347 348 351 351 349 344 338 337 337 334 332 329 326 322 318 318 317 313 310 307 306 307 299 290 281 259 235 237 213 157 140 95 68 328 11 31 18 29 54 359 51 86 131 136 131 131 122 110 80 57 78 60 2 22 59 344 29 105 106 133 158 112 126 194 241 256 197 146 123 103 67 75 44 32 23 84 95 65 56 34 42 63 41 25 17 19 25 33
345 348 351 351 348 343 338 335 334 332 329 325 325 320 315 317 317 310 306 305 306 306 298 284 271 234 208 220 196 178 158 89 34 343 10 30 36 48 69 21 88 119 138 131 124 123 113 96 70 52 70 77 34 24 14 344 51 111 138 126 141 112 119 217 261 260 135 100 84 83 81 94 77 47 27 36 79 66 48 47 57 64 50 39 30 29 32 36
344 348 350 347 344 339 335 333 332 329 325 323 323 318 312 314 314 308 304 304 306 301 287 267 253 195 201 210 182 166 123 122 329 5 9 40 63 77 102 32 124 137 154 142 120 113 100 71 68 85 79 77 95 106 334 356 64 113 324 351 36 126 162 254 85 46 94 91 91 123 105 102 93 68 45 54 72 76 67 65 66 62 56 52 43 39 38 37
342 345 346 343 340 336 334 333 332 330 327 324 323 319 311 310 310 307 304 305 302 283 268 250 219 187 194 180 138 84 84 98 343 6 16 48 75 107 95 351 142 145 162 147 115 99 97 82 89 110 100 97 108 119 3 13 52 101 263 321 332 149 219 278 45 43 55 78 185 116 79 75 94 89 65 69 80 82 78 72 70 68 59 54 48 43 41 40
341 343 343 342 339 336 334 333 333 333 330 326 326 322 313 309 304 302 303 303 294 270 268 230 192 184 183 166 138 62 56 4 351 13 36 58 72 47 43 124 142 153 141 134 136 129 113 105 126 126 94 132 160 164 102 42 29 61 207 276 318 285 274 306 350 21 43 40 24 67 67 71 95 99 82 81 87 81 79 74 68 68 57 52 49 43 41 39
339 341 341 340 337 335 333 333 334 334 332 328 326 322 314 309 303 301 301 296 280 255 260 184 179 182 176 163 112 66 29 323 1 20 52 65 56 36 139 137 142 156 125 105 139 146 138 129 163 166 141 155 160 168 145 110 264 223 191 231 312 358 326 336 329 358 63 279 73 77 86 104 110 97 79 82 93 87 80 71 62 61 55 49 47 44 41 38
338 338 338 337 335 334 333 334 335 335 333 329 325 320 315 310 304 299 40 3 290 244 196 166 177 182 180 154 67 86 357 9 21 26 57 60 56 66 107 124 141 153 129 98 118 129 139 157 170 157 134 123 153 143 135 150 192 195 169 196 286 354 337 13 341 346 87 224 116 104 119 123 122 69 87 100 99 86 75 64 55 60 56 50 47 43 41 38
340 337 336 338 340 339 336 335 335 335 334 330 325 324 323 324 76 84 55 40 22 161 151 167 178 172 165 67 86 112 360 24 35 32 49 56 69 79 82 101 144 150 133 99 98 108 119 150 146 122 125 150 149 120 193 189 125 132 139 125 325 347 331 341 11 224 131 187 122 115 121 69 10 33 94 105 92 73 70 63 53 60 58 52 50 43 41 37
341 337 339 343 346 342 338 337 335 334 331 331 332 335 346 63 73 52 49 43 148 140 146 166 170 161 120 66 79 62 15 38 43 33 29 56 82 82 71 81 117 145 142 108 95 110 119 150 130 98 176 148 135 134 187 189 83 100 112 103 328 3 341 260 256 208 167 177 145 122 111 36 29 61 89 90 90 70 64 60 51 57 56 52 51 46 43 37
342 341 343 342 343 340 340 338 335 334 332 337 343 354 50 74 58 52 60 90 126 138 153 160 161 167 89 64 40 26 44 53 43 36 42 79 90 86 74 80 91 115 141 123 112 112 121 152 127 103 137 115 130 184 104 48 60 109 83 99 357 19 333 267 336 174 162 167 164 148 152 60 57 71 90 90 90 72 60 53 47 51 50 49 48 47 45 37
345 344 343 341 342 340 341 339 336 338 338 348 5 58 82 75 70 73 89 104 121 142 158 156 159 167 72 91 349 45 64 72 62 50 56 87 105 94 87 87 88 98 116 116 109 103 122 140 111 99 112 90 139 129 41 14 31 111 85 69 80 85 280 290 351 147 163 191 82 164 206 118 71 40 40 56 76 78 67 54 47 48 46 44 43 43 42 38
348 346 345 343 342 340 342 341 340 344 349 31 89 100 88 86 91 90 103 113 123 141 151 150 171 103 80 77 353 60 80 74 58 44 47 75 103 98 91 96 93 93 101 104 100 95 113 126 98 85 134 26 73 86 35 5 22 41 134 278 13 150 264 313 350 160 165 10 25 126 182 113 72 25 19 41 68 79 76 62 51 49 45 43 39 39 38 34
351 349 348 344 342 342 343 344 347 2 38 99 114 107 90 96 104 100 110 117 124 138 140 135 151 104 91 84 38 61 60 45 35 40 49 62 87 102 98 100 96 90 94 93 98 95 83 89 77 67 128 69 78 92 63 32 3 351 144 209 238 162 252 328 323 302 146 90 26 55 142 119 75 37 22 36 59 73 77 66 54 51 44 43 40 36 34 28
352 351 348 345 344 344 346 351 2 51 91 111 120 111 98 103 115 117 116 110 110 115 114 102 71 83 69 43 66 33 2 12 22 43 56 55 74 111 105 93 83 85 89 77 85 82 45 46 69 23 55 65 103 101 83 181 246 289 55 139 204 162 170 300 285 327 40 108 45 45 92 108 81 53 34 35 49 66 71 63 55 52 44 43 42 39 35 28
353 351 349 348 349 350 353 2 37 93 110 118 118 112 109 110 114 109 98 103 105 88 93 58 19 62 45 17 50 325 315 354 24 36 48 55 69 98 98 91 92 83 70 47 51 52 22 25 62 79 46 56 144 134 152 211 190 174 154 141 173 158 165 237 248 292 37 70 83 77 93 104 82 59 47 39 46 64 67 62 58 52 47 43 39 40 36 31
353 351 351 351 357 0 0 22 78 113 124 122 118 119 117 108 98 78 55 55 72 77 95 360 357 115 116 16 346 352 5 9 24 30 30 37 63 86 80 70 80 85 82 48 31 44 53 52 62 113 172 182 186 169 167 182 158 161 165 149 157 164 210 240 250 284 66 82 63 82 111 112 80 52 49 46 49 63 64 60 57 49 46 41 39 39 34 34
351 351 352 355 7 8 7 48 99 128 130 124 122 120 119 100 76 48 33 43 63 127 100 343 352 90 70 30 345 10 43 50 43 28 22 13 21 72 54 32 42 55 87 138 113 60 85 100 169 177 179 185 169 156 141 122 121 125 122 114 131 166 224 252 264 315 68 97 37 83 105 91 70 50 40 48 51 54 53 54 52 46 44 39 39 37 32 36
353 351 352 359 13 13 18 73 114 137 135 131 123 102 139 130 86 125 28 53 58 67 79 40 51 78 74 40 358 347 38 50 35 19 17 9 13 72 2 17 67 52 8 160 133 45 79 130 211 201 164 185 144 138 126 97 85 84 107 107 66 183 225 250 175 338 4 94 89 120 105 72 66 56 35 49 57 49 44 53 53 46 48 42 38 35 30 33
356 349 352 6 16 20 38 95 124 148 149 136 84 82 120 127 111 143 130 92 36 29 57 36 40 49 35 54 17 1 63 43 16 5 7 5 22 83 340 45 97 129 341 94 102 56 73 190 236 245 155 109 79 106 113 88 86 84 95 110 102 244 243 281 341 7 15 86 153 165 120 76 72 66 54 59 68 66 56 60 60 52 52 44 37 32 27 27
356 350 358 6 18 40 72 114 140 159 148 85 89 93 106 102 116 137 107 96 49 14 31 29 49 26 0 27 13 20 72 52 4 341 353 1 24 61 74 77 96 123 68 93 134 121 151 239 271 258 159 111 64 61 101 90 74 94 108 124 199 265 138 253 332 26 27 64 150 158 121 99 114 86 71 70 83 89 78 73 67 61 59 50 44 39 32 29
354 356 3 360 52 75 85 121 147 137 100 89 96 105 119 113 116 120 82 84 76 10 17 55 109 52 12 360 359 27 94 59 54 325 346 10 61 16 77 123 103 95 107 121 127 125 148 252 340 73 116 115 93 60 91 119 75 25 152 154 179 210 197 215 293 90 43 41 126 135 103 209 168 163 121 100 107 95 83 81 70 62 62 57 52 46 40 36
353 3 8 358 137 99 88 108 120 119 106 87 102 120 124 116 110 89 76 72 40 313 324 205 151 34 5 351 354 24 114 47 65 307 341 19 15 345 77 135 96 86 206 120 107 105 51 289 109 97 77 83 103 76 44 147 143 324 219 179 178 186 203 198 110 107 44 5 181 145 153 266 171 176 163 134 127 97 77 71 65 58 54 52 50 44 38 36
357 7 16 8 195 146 95 87 117 124 112 81 122 137 127 113 91 52 79 65 6 287 315 274 99 11 340 346 346 351 90 26 350 352 4 13 332 168 94 358 70 122 189 134 107 108 358 339 64 111 106 80 90 85 355 142 132 189 233 167 160 148 155 161 142 128 72 264 225 157 185 270 259 193 162 145 136 106 84 66 61 55 48 48 47 42 35 27
1 11 29 30 123 164 121 146 147 137 111 129 149 151 145 119 64 31 64 47 355 282 77 280 11 23 353 339 342 31 108 304 300 32 17 8 340 174 93 8 59 81 191 117 95 93 346 354 24 51 84 80 80 85 348 127 127 177 217 122 132 138 154 172 148 152 214 258 314 169 170 275 280 225 151 146 133 100 90 72 61 58 55 56 52 45 39 29
4 15 47 52 89 131 120 144 146 121 108 158 162 164 168 131 357 47 79 67 313 20 65 312 358 24 1 11 27 74 134 316 50 9 347 7 5 34 82 54 125 96 14 96 152 275 10 17 14 26 65 78 93 110 282 112 110 187 186 117 121 133 147 136 121 147 276 13 289 231 160 298 268 217 125 158 175 183 155 136 127 96 77 70 64 52 43 38
7 15 66 77 91 98 109 132 128 101 132 156 161 171 183 323 357 60 75 138 278 33 45 354 18 356 348 20 28 33 15 9 74 314 332 14 23 40 92 99 124 104 27 60 130 151 44 43 349 73 71 69 273 283 251 140 95 155 127 89 65 67 73 69 100 123 54 12 236 213 166 190 263 206 146 185 223 211 161 160 179 133 110 105 90 77 65 53
17 26 81 98 97 100 107 102 92 112 137 150 161 177 216 2 47 65 57 242 98 39 309 24 350 339 10 42 24 11 28 19 334 332 348 15 7 19 81 119 92 91 33 46 79 69 345 315 5 80 50 268 262 291 230 182 257 146 106 62 40 29 36 41 48 83 72 271 262 241 187 168 250 245 151 158 192 144 145 157 166 150 141 131 110 100 91 68
31 33 54 93 98 111 114 85 92 123 135 144 156 159 19 24 65 95 208 245 93 334 357 30 342 11 40 77 48 6 21 360 341 4 16 3 0 12 34 39 52 58 33 39 51 10 3 9 10 9 334 342 12 349 84 40 28 90 88 81 64 355 10 23 354 49 132 245 281 308 263 160 219 246 94 98 102 115 151 165 165 161 150 135 130 124 108 80
43 37 41 67 86 95 105 111 120 127 133 139 137 67 67 56 29 161 257 316 13 298 35 48 330 36 52 64 41 349 348 4 9 39 41 22 30 20 23 153 150 56 18 287 50 22 11 10 343 322 338 35 36 85 39 5 32 79 84 90 95 356 10 9 320 64 217 246 279 315 330 163 228 230 111 114 87 42 72 132 153 155 148 148 151 136 110 91
53 48 55 68 74 83 95 110 126 132 138 135 109 51 77 84 235 209 285 344 94 308 51 76 21 49 70 61 22 330 2 22 8 36 46 73 71 38 27 130 156 125 161 174 110 62 344 315 351 357 352 19 38 112 125 333 45 105 129 120 127 127 112 232 238 302 264 262 302 317 333 218 254 81 133 120 72 46 57 92 127 141 149 157 146 133 121 106
73 70 69 67 64 70 86 107 134 143 143 123 85 64 85 138 228 186 262 258 230 334 27 75 50 40 49 66 295 292 60 42 352 39 26 36 66 45 343 1 26 90 118 110 121 134 161 263 343 20 332 354 28 74 146 165 109 104 148 125 136 155 158 201 198 200 245 285 319 305 274 206 222 143 208 210 75 86 80 93 114 120 134 141 130 133 132 119
84 79 72 63 55 55 74 112 143 152 146 99 67 78 130 224 235 163 221 233 224 324 10 30 70 55 17 352 328 281 145 101 26 56 31 38 95 136 291 319 344 37 119 144 182 111 119 237 266 293 291 13 20 340 42 85 86 273 127 102 131 184 140 143 182 175 169 338 318 263 232 211 145 152 235 213 133 123 121 122 126 134 144 144 147 148 138 133
86 75 65 54 42 38 57 101 137 156 134 83 72 106 195 222 213 158 181 178 165 160 128 51 68 75 338 305 352 351 327 101 69 57 30 48 134 172 168 264 312 22 112 160 179 132 112 246 292 320 319 46 23 300 16 60 187 114 102 150 209 176 114 113 215 136 111 224 262 204 249 305 79 206 237 185 177 176 168 165 160 164 164 161 169 161 149 155
82 72 58 37 25 24 45 85 131 147 93 84 102 198 217 209 191 174 110 30 160 132 118 126 138 133 194 236 292 306 333 16 51 67 117 117 169 178 158 271 277 61 58 138 163 167 137 186 315 8 331 294 353 338 7 20 133 106 153 211 178 92 92 101 180 14 56 246 262 224 245 266 223 247 298 197 205 206 193 185 180 176 176 184 186 171 164 160
88 81 59 22 12 15 41 82 129 116 71 83 115 239 191 168 220 196 24 320 141 90 107 157 179 189 179 174 225 279 322 279 346 62 128 204 243 158 134 283 277 61 4 66 118 165 104 103 298 324 252 303 356 52 320 327 33 113 186 200 97 130 145 93 137 174 189 236 281 307 296 255 212 200 188 205 207 201 191 179 182 191 190 195 189 168 169 163
84 75 39 6 5 13 40 114 126 77 69 120 210 237 179 198 271 256 42 314 117 97 144 181 138 72 148 166 181 252 2 218 179 98 131 187 214 124 107 117 199 38 334 55 119 282 78 109 255 287 293 314 1 52 202 308 344 20 26 5 46 137 164 149 144 156 164 195 264 312 322 271 232 209 180 193 195 184 179 178 190 201 197 197 192 176 178 179
76 78 331 342 3 15 54 98 79 55 74 165 209 204 171 221 250 22 13 342 121 125 176 175 148 125 136 157 167 156 37 48 149 138 192 171 100 85 70 73 134 317 326 22 90 17 42 102 197 293 330 341 13 46 170 182 320 7 43 345 351 80 127 165 57 85 122 156 190 258 291 266 251 207 159 172 174 173 178 186 196 201 198 199 197 190 190 190
80 76 300 336 358 8 73 71 51 54 99 121 201 174 158 170 149 360 345 25 92 167 158 132 136 146 150 147 159 154 87 37 81 108 207 188 94 79 344 106 141 299 350 54 69 41 62 116 155 280 334 134 213 274 190 186 202 153 143 196 174 126 119 130 298 321 95 139 173 169 264 270 262 70 110 112 159 185 179 182 193 196 195 198 199 195 193 192
80 123 300 353 358 42 76 66 42 98 112 135 210 173 42 86 104 358 337 22 76 89 61 87 99 103 132 139 149 144 110 85 159 119 191 213 133 176 241 118 129 33 86 134 318 243 137 99 96 164 240 215 251 278 109 123 167 131 125 145 132 123 118 135 209 240 117 116 145 113 268 276 273 246 246 277 263 228 176 173 187 195 195 198 202 199 191 188
98 179 340 7 358 77 74 66 308 33 53 247 257 351 3 50 93 41 2 21 42 71 49 59 74 74 124 127 124 149 146 157 174 141 141 232 253 185 158 129 155 141 107 148 235 183 135 85 83 300 297 313 315 327 41 27 48 117 208 64 109 144 115 140 184 175 142 174 144 94 274 270 277 269 249 264 261 214 176 175 181 186 199 205 206 205 191 182
123 176 351 11 6 110 107 157 208 74 252 257 27 21 356 43 78 80 77 45 30 88 90 100 87 76 125 95 90 131 164 165 170 126 117 164 200 148 112 58 196 166 124 195 196 158 216 134 103 78 357 341 339 342 339 338 35 168 220 105 99 93 97 115 144 92 175 208 153 153 241 253 277 317 300 271 217 177 179 181 178 181 201 212 206 208 201 185
93 75 295 4 29 67 136 181 152 142 166 114 90 157 64 42 42 134 125 96 72 133 115 137 212 89 96 91 68 59 45 71 149 142 103 111 318 102 64 352 287 175 38 251 191 88 119 142 115 120 151 207 240 253 254 247 202 198 225 175 154 123 125 140 118 112 231 228 154 174 227 264 296 310 292 254 212 197 197 190 198 204 207 211 207 205 206 200
110 58 287 340 21 55 74 17 108 123 153 141 128 193 133 97 291 245 116 97 103 132 91 80 176 106 75 84 74 45 18 32 87 127 130 144 222 278 333 346 292 234 129 80 64 77 100 77 85 131 155 184 193 210 243 219 156 190 200 177 173 151 132 116 113 167 197 168 190 218 188 182 279 255 237 246 227 215 218 202 213 229 223 216 213 208 213 217
134 137 162 291 2 44 40 13 76 100 160 164 155 196 163 151 263 345 81 71 116 119 71 43 148 147 150 134 114 105 8 15 35 105 121 160 237 307 314 355 334 300 346 68 41 72 101 82 139 117 120 201 190 207 300 349 185 193 182 181 184 171 144 143 172 206 166 138 250 255 175 168 247 226 212 228 222 214 227 220 216 225 225 215 210 214 221 224
160 152 146 137 328 117 73 50 118 89 80 103 96 148 155 155 173 167 121 58 69 95 84 51 301 175 173 162 138 136 112 29 3 156 135 189 195 2 343 309 316 339 23 40 358 81 110 154 201 118 65 285 230 281 304 339 203 216 198 199 190 175 181 193 211 211 168 173 232 225 166 198 240 230 214 216 210 207 216 216 210 217 230 226 216 220 227 228
112 102 54 13 81 160 163 173 131 105 81 78 79 147 168 173 181 205 232 84 37 331 64 185 236 107 123 139 117 138 176 157 188 222 180 161 163 104 67 226 273 357 45 60 14 71 116 152 183 120 68 334 325 318 327 44 24 277 247 222 201 192 200 214 233 212 194 228 225 155 187 242 244 230 229 219 207 211 218 213 202 220 238 240 229 227 232 233
154 154 152 55 60 121 16 26 109 108 68 50 105 176 174 175 180 203 284 116 155 248 156 180 189 136 99 116 105 141 206 166 161 204 178 152 173 187 177 195 177 55 42 63 22 13 86 126 154 105 70 323 329 346 11 42 35 276 270 253 218 208 223 234 242 200 200 259 247 163 240 273 246 209 224 223 190 193 230 238 229 231 237 234 230 232 235 235
105 124 141 109 78 360 14 42 87 112 138 278 181 178 190 194 185 159 107 150 167 184 199 168 156 130 62 90 94 219 235 176 170 197 169 151 168 171 167 196 155 128 84 74 25 7 72 105 74 74 80 280 325 16 348 354 10 279 269 251 218 200 210 222 216 192 187 203 181 158 242 267 229 174 197 203 169 185 220 230 231 237 230 216 220 228 231 234
99 79 113 104 90 311 115 94 61 113 192 245 165 164 200 205 183 124 108 207 105 72 243 167 144 114 75 102 108 277 232 164 151 149 128 116 104 96 89 74 96 119 141 117 51 2 98 131 149 106 139 257 314 22 338 351 358 277 258 234 208 200 205 223 233 218 200 166 138 183 227 243 175 150 164 183 189 203 222 223 222 231 224 212 218 225 228 234